User: anonymous   Login
Location: Unspecified
(0.0000°N, 0.0000°E)
Time: 09:20:28
(UTC+00:00)
Language:

Picosat 9 - Orbit

View from above orbital plane
View from above orbital plane
View from above satellite
View from above satellite

Ground track
Ground track

The orbit data is extracted from the following two-line orbital elements,

1 26930U 01043B   17327.48455583 -.00000052 +00000-0 +12063-4 0  9994
2 26930 067.0019 357.6412 0009023 239.9259 120.0947 14.30657906843274
Epoch (UTC): 23 November 2017 11:37:45
Eccentricity: 0.0009023
inclination: 67.0019°
perigee height: 783 km
apogee height: 796 km
right ascension of ascending node: 357.6412°
argument of perigee: 239.9259°
revolutions per day: 14.30657906
mean anomaly at epoch: 120.0947°
orbit number at epoch: 84327

The dashed part of the orbit path shows where the satellite is in the earth's shadow,  

DLR